Location: Béaulencourt
(50.0796°N, 2.8795°E)
Time: 23:24:37
(UTC+00:00)

Cosmos 962 Rocket - Pass Details

Date: 20 January 2026
Orbit: 951 x 998 km, 83.0° (Epoch: 17 February)

Event Time Altitude Azimuth Distance (km) Brightness Sun altitude
Rises 06:05:49 0° 196° (SSW) 3,614 7.5 -14.3°
Reaches altitude 10° 06:08:19 10° 199° (SSW) 2,675 6.8 -13.9°
Maximum altitude 06:14:23 67° 282° (WNW) 1,038 4.4 -13.0°
Drops below altitude 10° 06:20:35 10° 5° (N) 2,718 6.7 -12.0°
Sets 06:23:09 0° 9° (N) 3,676 7.4 -11.6°
